This is the latest recevied weather packets stored in our database for station/object WX5KDM. If no packets are shown the sender has not sent any weather packets the latest 10 day(s).
| Time | Temp. | Humidity | Pressure | Rain* | Wind** | Luminosity | Snow |
|---|---|---|---|---|---|---|---|
| 1788188410 | 31.67° C | 67% | 1021 hPa | 0 mm | - | - | - |
| 1788188099 | 31.11° C | 70% | 1020.9 hPa | 0 mm | - | - | - |
| 1788187795 | 30.56° C | 71% | 1020.9 hPa | 0 mm | - | - | - |
| 1788187491 | 31.11° C | 70% | 1020.9 hPa | 0 mm | - | - | - |
| 1788187186 | 31.11° C | 71% | 1020.9 hPa | 0 mm | - | - | - |
| 1788186881 | 31.11° C | 70% | 1020.9 hPa | 0 mm | - | - | - |
| 1788186576 | 30.56° C | 71% | 1021 hPa | 0 mm | - | - | - |
| 1788186272 | 29.44° C | 75% | 1020.7 hPa | 0 mm | - | - | - |
| 1788185966 | 29.44° C | 75% | 1020.6 hPa | 0 mm | - | - | - |
| 1788185660 | 29.44° C | 75% | 1020.8 hPa | 0 mm | - | - | - |
| 1788185355 | 28.33° C | 77% | 1020.6 hPa | 0 mm | - | - | - |
| 1788185050 | 28.89° C | 77% | 1020.6 hPa | 0 mm | - | - | - |
| 1788184748 | 28.33° C | 77% | 1020.6 hPa | 0 mm | - | - | - |
| 1788184442 | 28.89° C | 78% | 1020.6 hPa | 0 mm | - | - | - |
| 1788184137 | 27.78° C | 81% | 1020.8 hPa | 0 mm | - | - | - |
| 1788183834 | 27.78° C | 79% | 1020.7 hPa | 0 mm | - | - | - |
| 1788183533 | 27.78° C | 79% | 1020.8 hPa | 0 mm | - | - | - |
| 1788183228 | 27.78° C | 80% | 1020.5 hPa | 0 mm | - | - | - |
| 1788182924 | 27.22° C | 81% | 1020.8 hPa | 0 mm | - | - | - |
| 1788182618 | 27.22° C | 83% | 1020.7 hPa | 0 mm | - | - | - |
| 1788182318 | 27.22° C | 83% | 1020.8 hPa | 0 mm | - | - | - |
| 1788182014 | 26.67° C | 83% | 1020.6 hPa | 0 mm | - | - | - |
| 1788181709 | 26.67° C | 85% | 1020.7 hPa | 0 mm | - | - | - |
| 1788181405 | 26.11° C | 85% | 1020.6 hPa | 0 mm | - | - | - |
| 1788181104 | 26.11° C | 86% | 1020.6 hPa | 0 mm | - | - | - |
* Rain latest hour (hover to see other rain measurements)
** Current wind speed in m/s (hover to see current wind gust speed)